Location: ??????
(41.3164°N, 22.6615°E)
Time: 19:14:17
(UTC+00:00)

CZ-2C R/B - Pass Details

Date: 25 May 2022
Orbit: 785 x 869 km, 98.2° (Epoch: 28 June)

Event Time Altitude Azimuth Distance (km) Brightness Sun altitude
Rises 02:02:53 0° 133° (SE) 3,267 5.9 -10.1°
Reaches altitude 10° 02:05:29 10° 122° (ESE) 2,347 5.3 -9.7°
Maximum altitude 02:09:45 27° 66° (ENE) 1,496 5.0 -9.1°
Drops below altitude 10° 02:14:06 10° 10° (N) 2,389 5.8 -8.4°
Sets 02:16:46 0° 359° (N) 3,337 6.4 -8.0°
